Precipitable_Water
0.96 0.96 0.92 0.87 0.79 0.74 0.69 0.61 0.54 0.59 0.67 0.83 0.86 0.86 0.87 0.88 0.89 0.83 0.80 0.80 0.77 0.77 0.75 0.74 0.74 0.74 0.71 0.65 0.70 0.80 0.84 0.85
0.79 0.76 0.71 0.63 0.60 0.58 0.54 0.54 0.64 0.73 0.89 0.92 0.93 0.94 0.95 0.94 0.93 0.90 0.85 0.85 0.83 0.82 0.81 0.79 0.78 0.78 0.77 0.69 0.63 0.59 0.62 0.70
0.69 0.63 0.59 0.55 0.56 0.56 0.62 0.69 0.76 0.90 0.95 0.98 0.98 0.98 0.96 0.97 0.95 0.93 0.90 0.86 0.88 0.87 0.86 0.85 0.83 0.81 0.78 0.75 0.69 0.65 0.59 0.55
0.72 0.68 0.67 0.65 0.64 0.71 0.79 0.85 0.92 0.98 1.01 0.99 0.98 0.99 0.99 0.96 0.94 0.94 0.93 0.92 0.91 0.90 0.90 0.89 0.87 0.83 0.82 0.81 0.74 0.68 0.64 0.62
0.85 0.77 0.75 0.75 0.77 0.84 0.89 0.97 0.99 1.09 1.04 1.00 1.00 1.01 0.98 0.95 0.91 0.88 0.90 0.90 0.88 0.90 0.89 0.89 0.84 0.83 0.84 0.85 0.81 0.75 0.71 0.65
0.95 0.84 0.85 0.87 0.93 0.93 0.95 0.98 1.05 1.04 1.06 1.05 0.93 0.91 0.89 0.85 0.82 0.82 0.85 0.88 0.88 0.88 0.86 0.85 0.84 0.83 0.84 0.84 0.83 0.82 0.78 0.75
1.06 1.00 0.98 0.98 0.98 0.98 1.01 1.06 1.08 1.11 1.08 1.07 0.98 0.85 0.85 0.84 0.84 0.86 0.87 0.87 0.84 0.82 0.83 0.82 0.81 0.80 0.82 0.81 0.80 0.81 0.83 0.81
1.12 1.09 1.03 1.07 1.07 1.04 1.06 1.09 1.12 1.15 1.08 1.04 0.99 0.94 0.91 0.91 0.90 0.87 0.83 0.80 0.80 0.78 0.77 0.76 0.75 0.76 0.72 0.75 0.78 0.80 0.78 0.79
1.19 1.17 1.11 1.11 1.16 1.15 1.15 1.14 1.11 1.05 1.05 1.05 0.99 0.98 0.97 0.98 0.91 0.84 0.80 0.80 0.81 0.79 0.76 0.71 0.67 0.66 0.61 0.64 0.68 0.71 0.72 0.72
1.33 1.34 1.27 1.28 1.35 1.38 1.29 1.18 1.08 1.06 1.04 1.02 1.03 1.02 1.00 0.95 0.90 0.86 0.86 0.83 0.80 0.76 0.69 0.62 0.60 0.58 0.53 0.51 0.50 0.51 0.50 0.52
1.31 1.36 1.33 1.36 1.39 1.39 1.25 1.11 1.02 1.04 1.02 0.99 0.99 0.98 0.98 0.95 0.91 0.87 0.85 0.78 0.73 0.68 0.61 0.59 0.54 0.52 0.49 0.47 0.46 0.44 0.44 0.47
1.37 1.38 1.38 1.34 1.27 1.20 1.11 1.03 1.01 1.00 0.97 0.96 0.97 0.94 0.91 0.90 0.86 0.79 0.74 0.68 0.62 0.58 0.54 0.54 0.53 0.52 0.49 0.47 0.47 0.46 0.45 0.49
1.32 1.27 1.27 1.15 1.04 0.99 0.97 0.96 0.97 0.96 0.94 0.93 0.97 0.92 0.89 0.79 0.72 0.68 0.66 0.61 0.58 0.57 0.53 0.50 0.49 0.52 0.47 0.43 0.42 0.44 0.47 0.45
1.09 1.13 1.07 1.02 1.02 1.04 1.02 0.94 0.90 0.91 0.93 0.90 0.86 0.80 0.74 0.68 0.67 0.65 0.61 0.56 0.55 0.54 0.54 0.51 0.51 0.52 0.43 0.38 0.31 0.34 0.40 0.45
0.86 0.87 0.89 0.90 0.91 0.88 0.84 0.84 0.83 0.81 0.77 0.72 0.70 0.67 0.66 0.66 0.64 0.62 0.61 0.61 0.58 0.55 0.55 0.54 0.45 0.45 0.45 0.37 0.28 0.26 0.33 0.37
0.75 0.74 0.74 0.75 0.77 0.74 0.72 0.69 0.67 0.71 0.70 0.67 0.67 0.66 0.64 0.63 0.62 0.63 0.67 0.65 0.60 0.55 0.51 0.44 0.40 0.35 0.38 0.39 0.39 0.37 0.29 0.25
0.76 0.78 0.79 0.81 0.81 0.79 0.76 0.72 0.71 0.69 0.66 0.64 0.65 0.66 0.66 0.66 0.65 0.69 0.58 0.52 0.49 0.45 0.37 0.34 0.36 0.35 0.35 0.36 0.34 0.33 0.37 0.32
0.75 0.77 0.79 0.82 0.80 0.77 0.73 0.69 0.66 0.64 0.63 0.61 0.62 0.66 0.61 0.62 0.53 0.51 0.47 0.42 0.40 0.34 0.31 0.30 0.28 0.28 0.30 0.32 0.32 0.32 0.33 0.34
0.77 0.76 0.75 0.74 0.72 0.68 0.67 0.66 0.64 0.61 0.57 0.53 0.49 0.46 0.49 0.45 0.45 0.43 0.43 0.37 0.33 0.32 0.31 0.30 0.28 0.27 0.28 0.29 0.32 0.32 0.35 0.35
0.75 0.73 0.69 0.68 0.67 0.65 0.62 0.59 0.53 0.48 0.45 0.41 0.41 0.42 0.43 0.47 0.46 0.46 0.40 0.38 0.35 0.34 0.32 0.29 0.28 0.28 0.26 0.27 0.27 0.28 0.32 0.31
Wind_Speed
10 10 8 6 5 5 4 3 2 2 3 3 4 6 8 10 12 13 14 14 14 15 14 14 14 15 16 16 15 14 14 14
9 8 7 6 5 5 4 3 2 2 2 3 5 8 10 12 13 14 14 15 14 15 16 16 16 17 17 17 16 15 15 15
8 7 6 6 5 5 4 3 3 2 3 6 8 9 11 13 14 15 15 16 16 17 18 18 19 19 18 18 17 16 15 15
7 6 5 5 5 4 4 4 4 4 6 8 10 12 13 14 15 17 17 18 19 19 20 20 21 21 20 19 19 18 17 16
7 6 5 5 5 5 5 5 4 7 8 10 12 14 15 15 17 17 18 20 21 21 21 21 22 23 22 22 21 21 20 19
7 6 5 5 6 7 7 7 8 10 11 13 14 15 16 16 18 20 20 21 22 21 22 23 24 25 24 24 25 25 24 23
8 7 7 6 7 7 8 9 13 14 14 15 17 18 18 20 21 22 23 23 23 23 25 26 27 27 27 27 26 27 27 27
8 8 7 7 7 8 11 13 15 16 17 17 19 19 20 22 23 25 25 25 25 26 28 30 30 30 30 31 30 30 30 30
10 9 9 10 11 12 13 14 15 17 18 19 20 21 23 24 25 26 27 28 29 31 34 34 33 33 32 31 32 32 33 34
12 9 10 10 13 13 13 13 17 19 20 21 23 23 25 26 27 29 31 31 33 34 36 35 35 36 35 35 35 36 36 37
12 11 13 13 13 12 13 17 19 20 20 22 24 26 27 28 30 31 33 34 36 37 37 38 38 39 39 40 40 41 41 41
14 14 15 14 18 18 18 19 20 20 22 24 27 27 29 30 32 35 35 37 39 40 40 41 42 43 45 45 45 45 44 43
14 17 16 21 19 19 19 19 21 23 27 27 26 32 32 34 34 36 39 41 42 43 45 46 46 47 48 50 49 46 45 46
13 17 18 19 19 20 22 23 25 26 28 31 31 32 33 35 38 41 43 44 46 46 48 49 49 50 51 51 50 52 48 49
13 15 18 19 21 22 23 25 27 29 31 31 32 33 35 38 41 43 45 45 47 49 50 50 51 51 51 51 51 50 53 51
15 17 19 20 21 23 25 27 28 30 31 32 34 36 38 40 43 45 47 49 50 50 51 52 53 53 53 51 52 53 54 56
18 20 21 22 23 25 27 28 30 31 32 34 36 39 42 45 49 50 48 50 51 52 53 53 53 53 53 53 54 54 55 55
18 18 19 21 24 26 27 28 30 33 35 39 42 46 49 50 49 48 50 51 53 53 52 51 52 52 52 52 52 53 53 52
17 19 20 22 24 27 29 32 35 38 41 43 46 48 49 50 49 50 51 52 51 51 50 51 50 50 49 50 49 50 49 49
18 19 22 25 28 31 33 36 39 41 43 46 48 50 50 49 50 50 51 51 51 50 50 49 49 48 46 44 45 43 40 39
Wind_Direction
175 177 185 197 201 198 207 224 247 281 312 336 346 348 345 341 338 336 335 335 337 337 338 337 334 333 331 329 322 317 312 306
175 185 193 196 198 206 215 230 250 279 307 330 332 332 333 333 335 334 334 333 332 332 332 332 330 328 327 327 325 321 313 306
185 191 195 202 210 216 227 241 251 268 295 314 321 325 329 331 330 328 328 327 325 325 323 324 324 322 321 320 319 319 317 311
200 203 206 211 217 224 233 241 253 282 297 309 314 317 319 322 325 322 322 322 320 318 317 317 319 317 315 313 313 313 311 309
202 206 210 218 229 234 242 247 267 293 298 306 311 312 312 316 321 321 319 318 317 315 314 314 316 314 311 307 305 305 303 302
204 210 226 244 242 249 247 247 284 295 301 303 307 310 310 312 317 317 317 317 315 314 312 311 312 312 309 307 302 298 297 294
220 233 242 253 257 249 257 258 287 293 296 299 302 305 303 307 312 313 313 314 313 311 310 309 308 307 305 302 300 297 294 292
234 238 236 251 270 261 270 280 285 289 296 296 301 302 304 306 308 310 310 310 310 309 310 308 306 304 303 299 296 294 292 290
240 242 243 263 275 274 275 283 288 292 294 295 299 300 302 304 306 308 308 308 307 307 307 306 304 303 302 300 297 294 291 289
245 249 263 274 285 284 285 290 297 295 298 298 301 301 302 303 304 305 305 306 306 305 306 305 303 302 300 299 297 294 292 289
248 254 272 296 293 287 300 296 301 300 299 301 302 302 301 303 304 305 305 304 305 304 303 303 302 300 299 297 295 293 291 288
256 272 285 286 292 290 297 298 300 301 301 303 301 304 303 303 304 304 305 304 304 303 303 301 300 299 298 296 294 292 289 286
269 282 287 297 295 296 295 298 298 300 302 302 297 304 302 303 304 305 305 305 304 303 302 301 299 298 297 296 294 290 288 285
287 288 292 295 297 295 295 296 299 300 301 302 301 303 304 303 304 304 305 304 304 303 302 301 299 299 297 295 293 290 286 286
293 294 295 296 297 297 298 299 299 300 302 303 303 303 304 305 306 305 305 305 304 303 302 301 300 298 298 295 294 290 290 286
296 297 297 299 300 302 301 301 303 304 303 304 304 306 306 306 306 305 304 304 303 301 301 300 299 298 297 294 292 291 289 286
300 299 298 300 302 303 304 304 305 305 304 304 304 305 305 304 304 303 302 303 303 303 302 301 299 298 296 295 293 291 288 286
307 307 304 304 306 307 307 307 306 306 306 305 304 304 303 304 305 303 303 304 303 303 302 301 300 299 297 295 294 292 289 288
309 308 309 310 310 311 310 308 306 306 305 306 306 306 306 305 305 304 304 305 304 303 303 303 302 301 299 297 296 293 291 289
309 308 309 309 309 308 308 308 308 308 308 308 308 308 307 305 305 305 305 305 305 304 304 304 304 303 301 299 301 298 294 292